Torna al catalogo

STARLINK-11555

AttivoComunicazioniVLEO
NORAD 62915·PAYLOAD·🇺🇸 United States

Lanciato Feb 8, 2025 da Cape Canaveral Space Force Station

Loading…

Prossimi Passaggi (prossime 24 ore)

TLE

AggiornatoSource: CelesTrak SupGP

Epoca: Sep 15, 2026, 02:51 UTC

1 62915C 25027J   26258.11923611  .00062256  00000+0  48340-3 0  2586
2 62915  43.0004 286.1132 0001545 244.8434  36.9839 15.70814637    14

Traccia STARLINK-11555 in tempo reale con AllMySat

Download on the App Store